User: anonymous   Login
Location: Brno
(49.2000°N, 16.6330°E)
Time: 18:28:47
(UTC+02:00)
Language:

Cosmos 1603 - Orbit

View from above orbital plane
View from above orbital plane
View from above satellite
View from above satellite

Ground track
Ground track

The orbit data is extracted from the following two-line orbital elements,

1 15333U 84106A   16151.22023603 -.00000148  00000-0 -53090-4 0  9992
2 15333  71.0258 174.2804 0017389  66.5139 293.7808 14.14039939634120
Epoch (UTC): 30 May 2016 05:17:08
Eccentricity: 0.0017389
inclination: 71.0258°
perigee height: 833 km
apogee height: 858 km
right ascension of ascending node: 174.2804°
argument of perigee: 66.5139°
revolutions per day: 14.14039939
mean anomaly at epoch: 293.7808°
orbit number at epoch: 63412

The dashed part of the orbit path shows where the satellite is in the earth's shadow,  

DLR